Simultaneous Nadir Overpasses (SNOs) Predictions

Prediction of SNOs between AQUA and NPP Satellite Orbit:

Table of predicted SNOs for the next 14.0 days since TLE Epoch: 2/22/2019
Index Date (AQUA) Time (AQUA) Lat,Lon (AQUA) SZA (AQUA ) Date (NPP) Time (NPP) Lat,Lon (NPP) SZA (NPP ) Distance(km) Time Diff (sec)
1 02/23/2019 14:05:19 -76.19, 28.41 72.78 02/23/2019 14:04:38 -76.20, 28.47 72.76 2.02 41
2 02/23/2019 14:54:25 77.09,-160.80 106.15 02/23/2019 14:55:02 77.10,-160.74 106.10 1.62 37
3 02/26/2019 06:21:48 -76.24, 144.45 73.83 02/26/2019 06:21:31 -76.24, 144.39 73.80 1.89 17
4 02/26/2019 07:10:54 77.14, -44.74 105.10 02/26/2019 07:11:55 77.13, -44.82 105.07 2.00 61
5 02/28/2019 21:49:02 75.64, 90.87 105.87 02/28/2019 21:47:52 75.64, 90.86 105.93 0.28 70
6 02/28/2019 22:38:07 -76.72, -98.06 75.40 02/28/2019 22:38:13 -76.72, -98.04 75.41 0.41 6
7 03/03/2019 14:05:20 76.18,-151.63 104.23 03/03/2019 14:04:33 76.18,-151.55 104.25 2.05 47
8 03/03/2019 14:54:35 -76.81, 18.15 76.53 03/03/2019 14:55:05 -76.80, 18.04 76.53 2.90 30
9 03/06/2019 06:21:48 76.26, -35.46 103.08 03/06/2019 06:21:25 76.26, -35.51 103.11 1.25 23
10 03/06/2019 07:10:56 -77.22, 135.56 78.07 03/06/2019 07:11:49 -77.22, 135.57 78.12 0.08 53




NCC Satellite Simultaneous Nadir Overpasses (SNOs) Prediction Service
